Weather in Iset'

Russia / Sverdlovsk Oblast     56°58′17″N   60°21′25″E
temp.,
°C
wind,
m/s
gust,
m/s
humid.,
%
clouds,
%
prec.,
mm/h
press.,
hPa
HPBL,
m
24 january, sun
sun2423:00−28se2398100 0.0 1035119
02:00−27se239897 0.0 1034107
05:00−26e2398100 1.0 1031186
08:00−26se25100100 0.0 1033136
11:00−23se2697100 0.1 1031197
14:00−19se3697100 0.4 1029243
17:00−18sse3696100 1.2 1027238
20:00−16sse2397100 0.4 102696
25 january, mon
mon2523:00−10sw1398100 0.8 1026125
02:00−8w3995100 0.1 1026265
05:00−8w1296100 0.2 102627
08:00−7wsw119796 0.1 102721
11:00−18ese1295100 0.8 1030130
14:00−14e1293100 0.3 1030167
17:000wsw51093100 0.6 1028463
20:00−3wsw4129289 0.1 1028510
26 january, tue
tue2623:00−2wsw5139188 0.1 1028572
02:00−3wsw5129196 0.0 1027527
05:00−3w6139197 0.1 1028577
08:00−4wsw51390100 0.0 1029560
11:00−3wsw6128994 0.0 1029607
14:00−4wsw6138999 0.0 1028566
17:00−3wsw61388100 0.0 1027709
20:00−3wsw51389100 0.0 1027777
27 january, wed
wed2723:00−3w51388100 0.0 1026773
02:00−4wsw51289100 0.0 1026698
05:00−6wsw61389100 0.0 1026518
08:00−6wsw51388100 0.0 1025401
11:00−7wsw61290100 0.0 1027517
14:00−6wsw51191100 0.0 1028483
17:00−6w2793100 0.1 1026321
20:00−8wsw41293100 0.0 1028428
28 january, thu
thu2823:00−9wsw41393100 0.0 1028361
02:00−9wsw41390100 0.0 1028354
05:00−8wsw4128691 0.0 1027317
08:00−8wsw3138598 0.0 1027285
11:00−18sse249796 0.1 1037146
14:00−13sse259485 0.0 1035218
17:00−13sse249690 0.0 1034144
20:00−5ssw3685100 0.0 1024120